Wind_Speed
34 34 35 35 36 36 36 36 36 37 37 36 34 33 32 31 32 32 32 32 31 30 30 29 28 27 27 26 25 24 22 20 17 15 13 13 13 13 13 14 14 15 16 16 16 16 16 16 17 18 18 19 18 16 14 11 9 8 8 9 10 11 11 12 13 15 16 17 19 20 21 22 23 25 27 28 29 29 28 28 28 29 30 31 33
33 33 34 35 35 35 35 35 35 36 37 37 36 34 33 32 32 32 32 32 31 31 31 30 29 28 28 27 26 25 23 20 17 15 13 12 11 11 11 12 12 13 13 14 15 16 16 17 17 17 18 17 16 14 11 9 8 7 8 9 10 11 12 12 14 15 17 18 20 21 22 23 25 26 28 29 29 29 29 30 30 31 33 34 34
32 33 33 34 34 34 35 34 34 35 37 38 37 35 33 32 32 32 31 31 31 32 31 31 31 30 30 29 27 26 24 21 18 16 13 12 10 9 9 10 10 10 11 11 12 13 14 15 15 15 15 14 12 10 8 7 6 6 7 9 10 11 12 13 14 16 18 19 21 22 23 24 26 27 28 29 29 30 31 32 32 33 33 34 34
31 32 33 33 33 33 34 34 34 35 36 37 38 36 34 32 32 31 31 30 31 31 31 31 31 31 31 29 28 26 25 22 19 17 14 12 10 8 7 8 9 9 9 9 9 10 11 11 12 12 11 10 9 7 6 4 4 5 7 8 10 11 12 14 15 17 19 21 22 23 24 25 26 27 28 29 30 31 32 33 33 33 33 34 35
31 31 32 32 32 33 33 33 34 34 34 36 37 37 36 34 32 31 30 29 29 30 30 30 31 32 32 30 29 28 26 24 21 18 16 14 11 9 7 6 7 8 8 8 9 9 8 8 8 8 8 7 6 4 3 2 2 4 6 8 10 12 13 14 15 18 21 22 23 23 24 25 26 27 28 29 31 32 32 33 33 33 34 35 37
30 30 31 31 31 32 32 33 34 34 34 34 35 37 37 36 34 32 30 30 30 30 30 30 31 32 33 32 32 31 29 26 23 20 17 15 13 11 9 7 6 7 7 8 8 8 8 8 7 7 6 5 4 3 2 0 2 4 6 8 10 12 13 14 17 20 22 23 23 24 24 25 26 27 29 30 31 32 32 33 33 34 35 37 38
28 29 30 30 30 30 31 32 34 34 33 33 34 36 37 38 36 34 32 32 31 31 31 32 33 34 34 34 35 35 33 31 27 23 20 17 15 13 12 10 8 7 7 8 8 8 8 8 8 8 7 6 5 4 2 1 3 5 6 8 10 11 13 15 19 22 23 23 23 24 25 26 27 28 29 30 31 32 32 32 33 34 36 37 38
26 28 29 29 29 29 30 31 33 34 33 33 33 34 36 37 37 36 35 34 33 33 33 33 35 36 35 36 38 38 38 36 33 30 26 23 20 17 15 13 11 10 8 8 8 8 8 7 7 7 6 5 4 2 1 2 3 4 6 7 9 12 15 18 21 22 23 23 23 24 25 26 28 29 30 30 31 31 31 32 33 35 36 36 36
24 26 27 28 28 28 29 30 31 32 33 33 33 33 34 36 37 38 37 36 35 34 34 34 36 37 36 37 40 41 42 42 40 37 34 31 28 26 23 20 17 14 11 10 8 8 7 7 6 5 5 4 3 2 1 1 2 3 5 7 11 14 17 20 22 23 23 24 24 25 26 28 30 30 30 30 31 30 31 32 34 35 35 35 36
22 24 25 27 27 28 28 28 29 31 32 32 32 32 33 34 36 37 37 37 36 35 35 35 37 38 37 37 40 42 44 46 46 44 41 38 36 35 33 30 26 22 18 15 12 10 9 8 7 7 6 6 6 6 5 4 4 5 7 11 14 17 20 22 23 23 24 24 25 27 29 30 31 31 31 31 31 31 32 33 34 34 34 35 35
20 21 24 26 27 27 28 28 29 29 31 32 31 31 32 32 34 35 37 38 38 37 36 35 37 38 37 37 40 42 45 48 49 48 46 43 41 40 40 38 35 32 29 25 21 18 15 13 11 10 9 9 9 9 9 9 9 10 12 15 18 21 23 23 23 24 24 26 28 30 31 31 31 32 32 32 31 32 33 34 34 34 35 35 36
18 19 22 24 25 26 27 28 28 28 29 30 30 31 31 31 32 34 36 38 39 38 36 35 36 38 38 37 38 41 43 46 49 50 49 46 45 44 44 43 41 39 37 34 31 27 24 21 18 16 14 13 13 13 13 14 15 17 18 21 23 24 24 24 24 25 26 28 30 31 32 32 32 33 33 33 33 34 34 34 35 35 35 36 37
15 17 20 22 24 25 26 27 27 27 27 28 29 29 30 30 31 33 35 36 38 38 37 36 36 37 38 36 36 38 40 42 45 47 48 48 48 48 47 47 45 44 42 41 38 35 32 30 27 24 22 21 20 20 20 21 22 23 24 25 25 25 24 24 25 26 28 29 30 31 32 33 34 34 34 35 35 35 34 35 35 35 36 36 37
14 15 17 20 22 23 24 25 26 26 26 27 27 28 28 29 30 32 33 35 36 37 37 37 36 37 38 37 35 35 37 39 41 43 46 48 48 48 50 50 49 48 47 46 43 41 38 36 34 33 31 30 29 28 28 27 27 27 27 26 26 25 25 25 27 28 28 29 29 31 33 34 35 35 35 36 36 35 35 35 35 36 36 37 38
12 13 15 18 20 21 22 24 24 25 25 25 26 26 27 28 29 30 32 33 34 35 36 37 37 37 37 38 35 33 34 36 37 39 42 45 46 46 48 50 51 51 50 49 47 45 42 40 39 38 36 35 34 33 31 30 29 28 27 27 26 25 26 27 27 27 27 28 29 31 33 34 35 35 37 37 36 36 35 35 36 36 36 37 37
11 12 14 16 18 19 20 21 23 23 23 24 25 25 25 26 28 29 30 31 32 33 35 36 37 37 37 37 36 33 32 32 33 35 38 40 41 42 43 45 48 50 50 49 49 47 44 43 41 40 38 37 35 34 33 32 31 30 29 28 27 27 27 27 26 26 26 27 28 30 33 34 34 35 37 37 37 36 36 36 36 37 36 36 36
10 11 12 14 15 17 18 19 20 21 22 23 23 23 24 25 26 27 28 29 31 32 33 34 36 37 37 37 36 35 33 32 31 32 34 35 36 37 38 40 42 44 46 46 47 46 45 44 42 41 39 38 37 35 34 33 32 31 30 29 28 27 27 26 25 25 25 26 27 29 31 32 33 35 36 37 37 38 38 37 36 36 37 36 36
9 9 10 12 13 15 16 17 18 19 20 21 21 22 23 24 24 26 27 28 29 30 31 33 34 35 35 36 36 35 34 33 31 30 30 32 32 33 34 35 37 39 40 41 42 42 42 42 41 40 39 38 37 36 35 34 33 32 30 29 28 27 26 26 25 25 24 25 26 27 29 31 32 34 35 36 38 38 38 37 36 36 36 36 37
8 8 8 10 12 13 14 15 16 17 18 19 20 21 21 22 23 24 25 27 28 29 30 30 32 33 33 34 35 35 34 33 32 30 29 29 30 30 30 32 34 35 36 36 36 37 37 36 36 35 35 34 33 33 32 31 30 29 29 28 28 27 26 25 25 24 23 23 24 25 28 29 30 32 34 35 36 37 38 37 37 36 35 36 37
7 7 7 9 10 11 13 14 15 15 16 17 18 19 19 20 21 22 23 25 26 27 28 29 29 31 31 32 32 33 33 33 32 31 29 29 29 29 29 29 30 32 32 32 32 32 32 32 31 30 30 29 29 28 28 27 27 27 26 26 26 25 25 24 23 22 22 22 23 25 26 27 28 31 33 34 35 36 37 37 37 36 35 35 35
6 6 6 8 9 11 13 14 14 14 14 15 15 17 17 18 19 20 21 23 24 25 26 27 27 28 30 30 30 31 31 31 31 31 30 29 29 29 28 28 28 28 29 29 29 29 29 28 27 27 26 26 26 25 25 25 25 25 24 24 24 23 23 22 21 20 20 22 23 25 26 26 27 29 32 33 33 34 35 37 37 37 36 35 34
5 4 5 7 8 10 12 13 13 13 13 14 14 15 16 16 17 19 20 21 22 23 23 24 25 26 27 28 28 29 29 29 29 29 29 28 28 27 27 26 26 26 26 26 26 26 25 25 24 25 25 25 24 24 24 24 24 23 23 22 22 21 20 19 19 18 19 21 23 25 26 25 26 27 29 31 33 33 33 35 36 36 37 36 34
4 4 5 6 8 9 11 12 12 12 13 13 14 14 14 15 16 17 18 19 20 21 21 22 23 24 24 25 26 26 27 27 27 27 27 27 27 26 25 25 25 25 25 24 24 24 24 24 23 23 24 24 24 24 24 24 24 23 22 21 20 19 18 18 17 18 19 21 23 25 25 25 25 25 27 30 32 32 30 31 34 35 35 36 34
5 4 4 6 7 8 10 11 11 11 12 13 13 14 14 15 15 15 16 17 18 19 20 20 21 21 21 22 23 24 24 25 25 25 25 25 25 25 24 24 24 25 25 24 24 24 24 24 24 23 23 24 25 25 24 25 24 24 23 22 20 19 18 18 18 19 20 21 23 24 25 25 23 23 24 27 30 31 28 28 32 34 35 35 34
5 4 4 5 6 7 8 9 10 10 11 12 13 14 14 15 15 15 15 16 17 17 18 18 19 19 19 19 20 21 22 22 23 23 23 23 23 23 23 23 24 24 24 24 24 23 23 24 24 23 23 24 24 24 24 24 23 23 23 22 21 20 19 19 19 20 21 21 22 24 24 24 22 21 22 24 28 29 26 26 31 34 36 36 35
6 5 5 5 5 6 7 8 8 9 10 11 12 13 14 14 15 15 15 16 16 17 17 17 17 17 17 17 17 18 19 20 20 21 21 21 21 21 22 22 23 23 23 23 23 23 23 23 23 23 23 23 23 23 23 22 22 22 22 21 20 20 20 20 20 20 21 22 22 23 23 22 21 20 22 24 27 28 26 25 29 33 36 38 37
7 6 5 4 4 4 5 6 7 8 9 10 11 12 12 13 14 15 15 16 16 16 16 17 16 16 16 16 16 16 16 17 17 18 18 19 19 20 20 21 21 21 22 22 22 21 22 22 22 22 22 22 22 22 22 22 21 21 21 20 20 20 20 20 21 21 22 22 22 23 23 22 20 19 21 24 26 27 26 24 27 31 35 38 38
8 7 5 4 3 3 3 4 5 7 8 9 10 11 11 12 13 14 15 15 16 16 16 16 16 16 16 16 15 15 15 15 15 16 16 16 17 18 18 19 19 19 20 20 20 20 20 20 20 20 20 20 20 21 21 21 21 21 21 21 21 21 21 21 21 22 22 23 22 22 22 22 20 19 21 24 25 26 26 24 25 29 32 36 38
8 7 6 4 3 1 2 3 4 6 7 8 9 10 11 12 13 13 14 15 16 16 16 15 15 15 15 15 15 15 15 15 14 14 14 14 15 16 16 17 17 17 17 18 18 18 18 18 18 18 18 18 19 19 19 19 19 20 20 21 21 21 21 22 23 23 23 23 23 23 23 23 22 21 22 24 24 24 26 25 25 28 30 33 36
9 8 6 5 3 2 1 2 4 6 7 8 9 10 11 12 12 13 14 15 15 16 16 16 15 15 15 15 15 15 15 15 14 14 14 14 14 14 15 15 16 16 16 16 16 17 17 17 17 17 17 18 18 17 18 18 18 19 19 20 20 21 21 22 24 25 24 24 23 24 24 24 23 23 23 24 24 23 25 26 26 27 28 31 34
10 8 7 6 5 3 2 3 4 6 7 8 9 10 11 12 12 13 14 14 14 15 15 16 16 15 15 15 15 15 15 15 15 14 14 14 14 14 14 15 15 15 15 15 15 15 15 16 16 17 17 18 18 18 18 17 18 19 19 19 20 20 21 23 24 24 24 24 25 25 25 24 24 23 23 24 23 22 23 25 26 26 27 29 32
10 9 8 7 6 5 4 4 5 6 7 8 9 10 11 12 12 13 14 14 14 15 15 16 16 16 15 15 15 14 14 15 15 15 15 15 14 14 14 15 15 15 15 15 15 15 15 15 15 16 16 17 18 18 18 18 18 18 19 19 19 20 21 22 23 23 24 24 25 26 26 25 24 23 23 24 22 21 22 24 24 25 26 27 30
11 10 9 8 7 6 5 5 5 6 7 8 9 10 11 12 13 14 14 15 15 15 15 16 16 16 16 15 15 15 14 14 15 15 15 15 15 15 15 15 15 15 15 15 15 15 15 15 15 15 15 16 16 17 18 18 18 18 18 19 19 20 21 22 22 23 24 25 26 26 26 25 24 24 23 23 21 20 21 22 23 24 25 26 28
12 11 10 10 9 8 6 6 6 7 8 9 10 11 12 13 14 14 15 15 15 16 16 16 16 15 15 15 15 15 15 14 14 14 15 15 15 15 15 15 15 15 15 16 16 16 16 16 16 16 16 15 16 16 17 18 18 18 18 19 20 21 21 21 22 23 24 25 26 27 27 26 25 25 23 22 20 19 20 21 22 23 24 25 28
14 13 12 11 10 9 8 8 8 8 9 10 11 12 13 14 15 15 15 15 15 16 16 16 15 15 15 14 14 14 14 15 15 14 15 15 15 15 15 15 16 16 16 16 16 16 16 17 17 16 16 16 16 16 17 18 19 19 19 19 20 20 21 22 23 24 25 26 26 27 27 26 25 24 23 22 20 20 20 21 22 23 24 25 27
16 15 13 12 11 11 11 11 11 11 12 12 13 14 15 15 15 15 15 15 15 15 15 15 15 15 14 14 14 14 14 14 15 15 15 15 15 15 16 16 16 16 16 16 16 17 17 17 17 17 17 17 17 17 17 18 19 19 19 20 20 20 21 22 24 26 26 27 28 28 28 26 25 24 22 21 20 20 21 21 23 23 24 25 27
17 16 15 14 13 13 13 14 14 15 15 15 15 15 15 15 15 14 14 14 14 14 14 14 14 14 14 14 14 14 14 14 14 15 15 15 16 16 16 16 16 17 17 17 17 17 17 17 17 17 17 17 17 17 17 18 18 19 20 20 21 21 22 23 25 26 28 29 29 29 28 27 25 24 23 22 21 20 21 22 23 24 25 26 26
18 18 17 16 15 15 16 17 17 17 18 17 16 15 15 14 14 13 13 13 13 13 13 14 14 14 15 15 15 15 15 15 15 15 15 16 16 16 17 17 17 17 17 17 18 18 18 18 18 18 18 18 18 18 18 18 19 20 21 22 22 23 24 25 26 27 28 29 29 29 28 27 25 24 24 23 21 21 21 22 24 25 26 27 26
21 20 19 18 17 17 18 19 19 19 19 18 16 15 13 13 12 12 12 12 12 13 14 14 15 15 16 16 17 17 17 17 17 17 16 17 17 17 17 17 17 17 17 18 18 18 18 18 18 18 18 19 19 19 19 19 20 21 22 24 24 25 25 25 26 28 28 28 27 27 27 26 25 25 24 23 22 22 22 22 24 26 27 28 27
23 22 21 20 19 20 20 20 20 19 18 17 15 13 12 12 12 12 12 12 13 14 15 16 16 17 17 17 18 19 19 19 19 19 19 19 19 18 18 18 17 18 18 18 18 19 19 19 19 19 20 20 21 21 21 21 21 22 23 25 26 26 25 24 25 26 27 27 26 26 25 25 25 24 24 23 22 21 21 22 24 26 28 28 28
24 23 22 21 20 20 20 20 19 19 17 15 13 12 11 11 11 11 11 12 13 14 15 16 17 17 18 18 19 19 20 20 20 20 20 20 21 20 20 19 19 19 19 19 19 19 19 20 20 20 20 21 22 22 22 22 22 22 23 25 25 25 24 23 24 24 25 25 24 24 25 25 24 24 24 23 22 22 22 23 24 26 28 29 29
24 23 22 21 20 20 19 19 18 18 16 13 12 12 11 11 11 10 11 11 12 14 14 15 16 17 18 18 19 20 20 21 21 21 21 21 22 22 22 21 21 21 21 21 21 21 20 20 20 20 21 22 23 23 23 22 22 23 23 23 22 21 21 22 23 22 22 23 22 22 23 24 24 24 24 23 23 23 24 25 27 28 29 29 28
24 23 22 21 20 19 18 17 17 16 14 12 11 11 11 10 10 9 10 11 11 12 13 14 15 16 17 18 19 20 20 21 21 21 22 22 23 23 23 23 23 23 23 22 22 22 21 20 20 20 21 22 23 24 23 23 24 23 22 20 19 18 20 21 22 21 20 20 20 21 22 23 24 24 24 23 23 25 26 27 29 29 29 28 26
23 22 21 20 18 17 17 16 15 13 11 10 11 11 10 9 9 9 9 10 10 11 11 12 13 14 16 17 19 20 21 22 23 22 22 23 23 23 23 23 23 23 23 22 22 22 22 21 20 21 22 23 23 24 24 24 23 22 20 19 18 19 21 23 23 21 19 18 18 19 20 22 23 24 24 24 24 25 27 28 29 29 27 26 24
21 21 20 18 16 15 15 15 13 11 9 9 10 10 10 9 9 9 9 9 9 9 9 10 11 13 15 17 18 19 21 22 24 24 23 23 23 23 22 22 22 22 22 21 22 22 22 22 21 21 22 23 24 24 25 24 23 21 20 20 21 22 24 25 24 22 19 18 18 18 19 21 23 23 24 24 24 25 27 28 28 27 23 22 21
20 20 18 16 14 13 13 13 12 11 9 9 10 10 10 9 9 9 9 9 9 9 9 9 10 11 13 15 17 18 20 22 24 24 24 24 24 24 22 21 21 22 22 21 21 23 23 24 23 21 22 24 24 24 24 25 23 22 22 22 23 24 25 25 25 23 21 20 19 19 19 21 22 23 23 24 25 25 26 27 26 24 20 19 19
18 17 15 14 14 13 13 12 11 11 10 9 11 11 11 10 10 10 10 9 9 9 9 9 10 11 12 15 17 17 19 21 23 24 24 25 26 25 23 21 21 22 22 21 21 23 25 25 24 23 22 24 24 23 24 25 25 24 24 24 24 25 25 25 25 24 23 22 22 21 20 21 22 23 24 24 25 26 25 24 23 21 19 17 18
18 16 15 14 13 12 12 12 12 12 11 10 12 13 12 11 12 11 10 10 10 10 10 10 11 12 13 15 16 17 19 21 22 24 25 27 28 28 25 22 21 22 22 21 21 24 26 26 25 24 24 24 24 24 24 25 25 24 24 24 24 24 24 24 24 24 24 24 24 23 22 21 22 23 24 25 25 25 24 21 19 19 19 19 20
21 20 18 16 13 13 13 14 15 15 13 12 13 15 14 14 13 13 12 11 12 11 11 11 12 13 14 15 17 18 18 19 21 23 26 28 29 29 28 25 24 23 22 21 23 26 27 26 26 25 24 24 24 24 24 25 24 24 23 23 23 24 24 24 24 24 24 25 25 24 23 22 22 23 24 25 24 22 21 19 18 19 21 22 25
23 22 21 19 17 17 17 17 17 17 15 14 15 16 16 15 15 15 13 13 13 12 11 11 13 15 15 16 18 19 19 19 20 22 25 28 30 30 30 28 27 25 22 21 24 27 27 27 26 25 24 24 23 24 24 23 23 23 22 22 22 23 24 24 24 24 25 25 25 25 24 23 23 24 24 24 23 20 18 18 19 20 23 25 27
25 24 23 22 21 21 21 20 19 18 17 16 17 18 17 16 17 17 16 15 14 12 11 12 14 16 17 17 19 21 21 21 21 22 24 27 29 31 30 29 29 26 23 23 26 27 27 27 27 25 24 22 21 21 21 21 22 21 21 21 21 23 24 24 25 25 25 26 27 26 26 25 25 25 25 24 23 21 18 19 20 22 24 26 28
Wind_Direction
67 67 67 67 66 66 65 64 64 64 64 64 65 65 65 65 65 66 65 65 64 62 60 58 55 52 51 50 49 50 52 52 52 51 53 61 69 71 68 64 64 65 65 69 74 82 89 96 103 109 114 116 118 121 121 120 115 106 91 78 70 62 56 51 50 50 49 48 44 40 34 28 23 18 14 11 10 10 11 9 6 1 358 355 354
67 67 67 67 67 66 65 64 64 63 63 63 63 64 64 64 63 63 63 63 63 61 59 56 51 48 47 47 47 47 49 51 51 50 50 54 65 77 80 75 70 68 69 69 73 79 87 96 103 109 113 116 120 122 124 122 114 98 79 68 61 55 50 47 47 47 47 45 42 37 32 26 21 17 13 11 11 12 11 8 4 2 360 359 0
68 68 67 68 67 66 65 64 64 63 63 63 64 63 63 63 62 62 61 61 61 59 57 53 48 45 44 44 45 46 48 50 52 53 54 56 62 76 90 95 90 83 80 78 78 81 87 94 100 107 112 117 122 126 129 124 107 82 66 58 53 49 45 43 43 43 44 44 41 36 30 24 19 15 12 12 12 11 9 7 6 5 5 6 8
68 68 68 68 68 67 65 64 64 63 63 63 64 64 64 64 63 62 61 60 60 59 57 53 47 43 42 44 46 48 50 52 54 56 59 64 71 79 94 109 114 111 106 101 98 95 95 97 102 108 114 121 128 134 135 120 93 66 54 48 46 43 40 38 39 41 44 44 40 34 28 22 18 15 14 13 12 11 10 10 10 11 12 12 13
66 67 68 69 69 68 66 65 64 63 63 63 63 64 65 65 65 65 64 62 61 60 59 54 48 44 44 49 52 52 52 52 53 55 59 66 76 86 97 112 125 131 131 129 126 122 120 118 118 121 126 135 143 148 144 114 67 48 43 41 40 38 36 36 39 43 45 43 38 32 26 22 19 17 15 14 13 14 14 16 16 17 16 16 16
65 66 68 69 69 68 66 65 64 63 63 63 63 63 64 64 65 66 65 64 62 61 59 55 49 45 48 55 57 54 53 52 52 52 55 61 71 82 93 107 124 139 146 148 147 147 148 147 148 150 155 163 169 178 184 143 37 34 35 35 35 35 36 38 42 45 45 42 37 31 26 23 21 19 17 17 18 19 20 20 20 19 18 18 18
64 65 66 68 68 68 66 65 64 63 62 62 63 63 63 63 64 64 64 63 62 60 57 54 49 47 52 58 58 55 55 56 56 55 56 59 66 76 86 96 110 130 148 159 163 165 166 166 167 170 174 181 189 196 201 1 18 23 26 28 33 36 39 44 46 47 45 41 36 31 28 25 23 22 23 24 24 23 23 22 20 20 20 21 20
64 64 65 66 67 67 66 65 64 63 62 62 62 62 62 62 63 63 62 62 61 60 58 54 50 50 56 60 58 57 58 60 61 62 63 64 68 74 80 88 98 111 129 149 162 167 171 173 172 169 169 174 188 202 260 344 0 10 15 27 37 41 45 49 51 49 45 41 36 33 30 29 29 30 29 28 26 26 24 22 21 21 22 22 21
65 63 64 66 67 67 66 64 64 62 61 61 61 61 61 61 61 61 61 62 61 60 59 55 52 53 59 62 60 59 61 62 64 65 66 68 69 71 73 77 82 91 103 117 132 145 153 159 158 151 142 135 132 120 70 17 9 12 24 40 47 49 53 56 54 50 45 41 38 35 35 36 37 35 31 28 27 26 23 22 22 22 22 22 21
67 65 65 66 66 67 66 64 63 62 61 60 60 61 61 61 61 61 61 61 61 60 58 56 53 55 61 64 63 62 63 64 65 65 67 69 70 71 71 71 72 74 79 87 96 106 116 125 129 127 118 105 93 84 77 70 56 49 51 54 57 60 62 60 54 49 45 42 41 42 43 42 39 34 30 28 26 23 21 21 21 21 21 21 21
70 68 67 67 67 67 66 64 63 63 62 60 60 60 61 61 62 62 61 61 60 59 58 57 55 55 60 65 66 65 65 65 65 65 66 68 70 72 73 73 72 72 73 75 79 83 88 93 98 101 99 89 80 74 73 73 71 68 66 67 69 69 65 59 53 48 45 45 47 49 48 43 37 32 29 26 23 21 20 20 19 19 19 20 20
72 71 70 69 68 67 67 66 65 65 64 62 61 61 61 61 61 62 62 61 61 60 59 58 56 56 60 65 67 67 66 66 66 66 66 68 70 72 74 75 75 75 76 76 77 78 79 81 85 88 90 88 84 81 80 80 79 77 76 76 74 69 62 56 51 49 50 53 54 52 47 40 35 32 29 26 22 20 19 18 18 18 19 20 21
73 71 71 70 69 68 68 67 67 66 65 64 62 61 61 61 60 61 63 63 62 61 60 59 58 57 59 64 68 69 68 67 66 67 68 68 70 72 74 75 76 77 78 79 79 79 80 81 83 85 87 88 88 88 87 86 84 83 80 76 70 64 58 54 54 56 58 59 56 51 44 39 36 33 30 26 23 21 19 18 18 18 20 21 22
75 72 71 71 69 68 67 67 67 66 65 64 64 62 62 61 61 61 62 63 63 62 62 61 60 59 60 63 68 71 71 69 67 68 71 71 71 73 75 76 77 77 78 79 80 80 81 83 84 85 87 88 88 88 88 86 84 81 76 70 65 60 58 59 61 63 63 60 55 47 41 38 37 34 30 26 24 23 21 20 20 20 21 22 22
77 72 71 70 68 66 66 66 66 65 64 64 63 62 61 61 61 61 62 63 63 63 63 63 62 61 61 62 67 71 72 71 69 69 72 74 74 74 75 77 77 77 78 78 79 79 81 83 84 85 85 86 86 86 85 82 79 75 70 66 64 63 64 65 66 65 62 58 51 43 38 38 36 33 30 27 25 24 23 22 22 22 22 22 23
79 71 70 70 68 65 64 64 64 63 62 62 62 62 61 60 60 60 61 62 63 63 63 64 64 63 62 62 65 69 72 73 71 71 73 76 77 76 75 76 77 78 77 77 77 77 78 79 80 81 81 81 80 80 78 76 73 70 68 67 68 68 67 65 64 62 60 55 47 39 37 37 35 32 30 27 25 24 23 23 23 24 23 23 24
81 73 70 70 69 66 64 63 62 63 61 61 61 60 59 58 57 58 59 61 62 62 62 63 64 64 64 64 64 66 70 73 72 72 73 75 77 76 76 76 77 77 77 77 76 75 74 74 75 76 77 77 76 75 74 73 71 70 70 70 69 66 64 62 61 60 57 50 42 36 35 35 34 32 29 26 25 24 23 22 23 24 25 24 24
84 76 71 72 71 68 66 63 61 61 61 60 59 59 58 56 55 55 56 58 59 60 60 60 62 63 64 65 65 64 66 69 71 72 73 76 76 76 76 76 77 77 76 76 75 73 72 71 70 70 71 72 73 73 72 72 71 69 68 67 65 62 60 59 58 56 52 44 37 32 32 33 33 31 28 26 24 23 22 21 21 23 24 25 24
90 81 74 73 74 71 69 64 59 58 59 59 58 57 56 54 53 53 53 55 57 58 58 59 60 62 63 64 65 65 64 65 67 68 70 73 76 76 75 74 75 76 75 74 73 72 71 69 67 66 66 67 67 66 66 65 64 63 62 60 60 59 57 55 53 51 45 38 33 29 29 30 31 30 27 25 23 22 21 19 19 19 22 23 23
97 89 82 77 76 74 71 65 58 54 54 56 57 57 56 53 52 51 51 52 54 56 57 58 59 61 62 62 63 65 65 65 65 65 65 66 70 74 74 73 73 73 73 71 70 69 68 67 66 64 62 61 59 57 56 54 54 53 53 55 56 55 54 52 50 46 40 34 30 27 26 27 27 28 27 24 21 20 19 18 17 17 18 21 22
102 94 89 82 78 74 71 66 59 53 51 52 53 55 55 53 51 50 50 50 51 53 55 56 57 58 60 61 61 62 64 65 65 64 63 61 63 67 70 71 70 70 69 66 64 63 62 61 61 60 57 55 53 50 48 47 47 47 48 51 54 54 52 50 47 42 37 31 28 26 24 23 24 27 26 23 20 19 17 16 15 15 16 18 19
111 102 94 86 82 76 71 67 61 55 51 50 50 51 51 51 49 48 47 48 48 49 51 53 55 56 57 59 61 61 62 63 64 64 64 63 61 61 63 65 65 64 64 61 59 57 55 53 52 52 51 49 47 45 44 43 43 44 46 49 52 52 50 48 44 38 32 28 26 25 22 20 21 24 24 21 18 16 15 15 14 14 14 15 16
134 122 106 94 86 79 73 68 62 57 54 50 48 48 47 47 46 45 44 45 46 46 47 49 51 53 53 54 56 59 60 61 62 61 62 62 62 61 60 59 59 59 59 57 56 55 52 50 49 48 48 48 46 45 44 43 43 44 46 49 50 49 45 41 37 34 29 26 24 22 20 18 17 18 18 17 16 14 13 14 14 13 14 15 15
160 149 125 107 94 84 76 69 63 57 53 50 46 45 44 43 43 41 40 40 41 41 42 44 46 48 49 49 50 53 55 57 58 58 58 58 59 59 58 57 57 57 57 56 55 53 52 51 50 49 48 49 48 46 45 45 44 44 45 47 46 41 36 33 31 31 28 24 21 18 16 16 15 14 13 13 13 11 12 14 15 14 14 15 16
173 165 144 122 105 91 80 72 64 56 51 47 43 40 39 38 38 38 37 36 36 36 37 37 39 41 43 44 44 46 48 50 51 52 52 52 53 54 54 53 54 54 55 54 53 52 50 49 47 46 46 46 46 44 42 41 40 40 40 40 37 31 26 23 23 25 24 21 18 14 12 12 13 12 10 10 9 9 12 15 15 14 13 14 15
184 178 163 139 115 97 85 75 64 55 49 44 40 36 33 32 33 33 33 34 33 32 32 32 32 33 35 38 38 39 42 43 44 44 44 44 44 45 46 46 47 48 49 50 49 48 47 46 43 42 40 40 40 39 38 36 35 34 33 31 28 24 20 15 13 16 17 17 14 11 8 7 9 10 9 8 7 8 11 13 13 13 13 12 13
196 192 182 159 130 104 87 75 64 53 45 40 36 32 28 26 25 25 27 29 29 29 29 28 27 27 28 30 30 32 33 35 36 36 36 35 34 35 37 38 39 41 42 42 42 42 42 42 40 37 36 35 35 34 32 31 29 29 28 25 22 19 16 11 7 10 12 12 9 7 4 3 4 5 6 7 6 6 9 10 9 10 11 11 11
205 205 198 183 155 113 84 67 57 49 41 35 32 28 24 21 19 17 18 20 21 22 23 23 23 22 23 23 24 24 25 26 27 27 27 26 25 26 28 30 31 33 34 34 34 35 35 35 35 34 31 30 30 29 27 24 23 22 20 18 15 13 11 7 4 7 10 8 5 2 1 0 0 0 1 4 3 3 6 7 5 6 8 9 9
213 214 214 208 195 160 74 53 43 39 35 29 25 22 20 18 15 13 12 12 12 12 14 15 16 17 17 18 19 19 20 21 21 20 18 18 16 17 19 21 23 25 26 26 26 27 27 27 28 28 26 25 26 25 22 19 17 16 14 12 9 6 5 3 2 6 7 4 1 359 358 358 358 357 356 358 360 1 4 4 1 1 3 6 7
220 222 227 231 230 243 328 23 27 28 25 19 15 14 13 12 11 9 7 6 4 3 4 5 7 10 11 12 13 13 14 16 17 17 15 14 12 11 12 13 15 16 18 19 19 19 19 19 19 20 20 19 19 21 20 16 13 12 10 8 5 2 1 0 1 3 2 359 358 356 356 356 356 353 351 352 355 358 2 2 359 358 359 2 4
227 231 237 246 256 270 306 349 6 11 10 6 3 3 4 5 5 3 0 358 357 356 354 355 357 0 3 5 6 7 8 9 10 11 12 11 11 11 10 10 11 10 11 13 13 13 13 13 13 13 13 12 12 14 15 14 11 9 7 4 1 358 358 360 0 359 357 355 354 354 353 353 352 350 348 348 351 355 358 359 358 357 357 357 359
232 239 246 256 267 282 304 330 347 353 354 353 352 352 354 355 355 354 353 350 348 347 347 347 349 351 355 357 359 0 2 2 3 4 5 6 7 8 8 8 8 8 8 9 9 10 11 11 11 10 9 9 8 7 8 9 9 7 3 360 357 356 358 359 357 354 353 352 351 350 350 350 349 348 347 348 349 351 353 355 357 357 356 355 357
238 244 252 261 270 282 295 312 327 335 339 340 341 342 342 341 341 342 342 342 341 340 340 341 342 344 347 349 351 354 356 357 357 358 359 360 2 3 4 4 5 5 5 5 4 5 7 9 10 10 9 8 7 5 3 4 5 5 1 357 354 354 357 356 353 351 350 350 348 347 347 347 347 346 347 349 348 346 348 352 355 357 357 355 356
244 248 254 261 268 276 285 295 308 317 323 327 329 331 332 332 333 331 331 333 335 335 334 335 337 338 341 343 345 348 350 352 352 352 353 354 355 357 358 359 360 0 0 0 360 360 2 3 5 6 6 6 5 2 359 358 359 359 358 354 352 353 353 351 349 348 347 347 345 345 346 347 346 346 347 349 349 346 346 350 354 356 357 356 358
243 247 252 257 265 272 279 287 295 302 308 313 317 320 323 326 326 325 325 327 329 330 330 331 333 334 337 339 340 342 344 345 346 346 347 348 349 350 351 353 354 355 355 355 355 355 356 357 358 359 359 359 359 357 355 353 352 351 352 351 350 350 349 346 344 345 344 344 344 345 348 349 347 345 347 349 350 348 347 350 353 355 356 356 359
242 246 249 253 261 269 277 284 289 294 299 304 308 312 316 320 321 321 322 324 325 326 327 327 329 331 332 334 335 337 338 338 339 340 341 342 343 344 345 346 347 348 349 349 349 349 350 350 351 351 351 350 349 349 348 347 345 344 345 346 346 345 344 341 340 341 341 342 345 347 351 352 348 346 348 349 350 350 349 350 353 354 355 356 359
246 249 252 255 259 267 274 280 286 291 295 299 302 306 311 315 317 319 320 321 322 322 323 324 324 326 327 328 329 330 331 332 333 333 335 336 337 338 339 340 341 341 342 342 343 343 343 343 343 343 342 341 339 339 339 340 339 338 339 342 342 341 340 338 337 339 340 341 344 347 352 353 350 348 349 350 351 351 351 351 352 353 354 355 357
250 254 258 261 264 269 274 278 284 289 292 295 299 304 309 312 314 316 317 318 318 317 318 318 319 319 321 322 322 323 324 325 326 327 329 330 331 331 332 333 334 335 335 336 336 337 337 337 336 335 333 332 331 330 331 333 334 335 336 338 340 340 340 339 339 342 344 343 342 345 351 353 351 351 352 352 352 351 351 350 350 351 353 354 355
250 254 259 265 270 273 276 279 283 286 289 292 297 301 305 307 309 311 313 314 315 314 314 315 315 316 316 317 317 318 318 319 320 321 322 324 325 325 326 327 327 328 330 330 331 332 332 331 330 328 326 324 323 323 325 328 330 332 336 337 339 341 343 343 343 344 346 346 343 344 351 355 354 354 356 354 351 350 348 348 347 348 350 351 352
248 252 257 263 268 273 276 280 283 284 286 289 292 295 298 299 302 306 310 312 314 314 315 316 317 317 317 317 316 315 315 316 316 316 318 319 320 321 322 323 324 324 325 326 327 328 328 328 328 326 324 321 320 321 323 325 327 331 336 339 339 342 345 349 349 347 347 348 347 345 351 357 356 355 356 353 349 346 344 344 345 346 347 349 350
249 252 256 260 264 268 272 276 279 280 281 284 286 287 288 291 296 302 308 313 314 314 317 319 319 320 319 318 316 314 313 313 313 314 314 315 317 318 320 321 321 321 322 322 324 325 326 327 328 327 325 322 321 323 326 328 330 334 338 340 341 342 345 349 352 351 349 350 350 347 350 355 356 355 355 353 348 344 341 340 341 342 345 347 348
249 252 255 258 260 262 265 268 270 272 274 277 279 280 281 285 292 300 307 311 314 315 317 319 320 320 319 318 316 314 313 313 312 312 312 312 313 314 315 315 316 316 317 318 318 320 322 324 325 326 325 323 323 326 330 333 336 338 339 340 341 342 342 344 347 350 349 350 351 349 349 353 354 353 354 353 348 344 341 338 336 337 339 342 344
244 248 251 253 254 255 257 260 260 262 265 271 274 275 278 284 291 298 304 307 310 313 316 319 320 319 318 317 316 316 316 316 314 313 313 312 312 312 312 312 312 312 312 313 313 314 315 318 320 321 322 321 322 325 329 332 334 335 336 337 339 338 336 336 338 343 346 348 350 348 347 348 349 348 349 349 347 343 340 336 334 332 333 335 338
237 241 245 247 248 249 251 253 254 257 261 265 269 271 275 281 287 292 297 301 305 310 315 318 319 319 318 318 318 319 319 318 316 316 317 315 315 315 315 315 315 314 312 312 311 310 310 312 313 314 315 315 316 319 321 324 327 328 330 331 331 330 329 328 330 335 339 341 343 343 341 340 342 343 343 344 342 340 337 334 332 330 329 330 332
236 239 242 245 247 249 250 253 256 258 259 259 261 266 270 274 279 283 288 295 302 309 314 317 320 320 319 318 318 320 320 317 317 318 319 318 316 316 317 319 318 316 315 315 313 310 308 307 307 308 308 308 309 312 314 317 319 320 322 324 324 323 323 324 326 330 333 333 334 335 334 334 336 338 338 338 338 336 334 331 329 328 328 328 328
237 240 244 248 250 253 254 255 258 258 255 253 254 258 262 266 271 276 283 292 301 308 314 318 321 320 319 317 317 319 318 316 317 318 319 317 316 317 320 321 319 316 316 316 315 311 307 305 305 306 305 303 305 308 310 311 313 314 315 317 319 320 321 323 325 327 327 326 326 328 330 330 331 333 334 334 334 333 331 328 327 328 327 325 324
238 240 244 248 250 253 255 256 258 256 251 251 254 255 257 260 265 271 280 290 297 304 311 316 317 317 316 315 316 317 316 316 317 318 317 315 315 318 322 321 318 314 314 316 315 309 304 304 306 307 306 304 306 308 308 308 310 312 314 316 317 318 320 322 322 322 322 320 320 324 328 328 328 329 330 331 331 330 328 326 326 327 326 323 321
238 239 240 242 244 249 254 257 256 253 250 251 256 258 259 260 264 270 278 286 292 300 308 311 311 312 311 311 313 314 314 316 318 318 316 314 315 320 323 322 316 312 314 318 313 303 301 303 306 308 308 308 309 311 311 311 312 315 316 317 317 317 318 318 318 318 317 316 319 323 327 327 327 327 328 328 328 328 327 324 321 323 324 322 320
236 237 238 238 240 243 247 249 249 248 247 249 255 259 262 264 267 272 277 283 289 296 305 308 306 306 307 307 307 309 311 315 317 316 315 314 317 321 324 323 318 316 318 316 306 300 301 304 307 308 310 311 312 313 314 315 317 319 318 318 317 316 315 314 314 315 315 315 319 324 327 328 327 327 327 328 328 328 329 326 319 315 315 316 318
232 234 235 236 236 237 238 240 243 245 245 247 251 256 260 263 267 272 276 280 286 293 301 303 301 301 303 304 304 305 309 312 315 314 313 314 318 323 325 324 324 325 322 310 301 301 305 307 308 311 313 314 316 317 318 318 319 320 319 319 318 315 314 313 314 315 316 318 322 326 328 329 328 328 327 328 330 331 332 330 324 316 314 315 318
229 229 231 232 233 235 236 238 241 244 244 243 248 253 257 260 264 268 273 277 283 291 296 295 295 297 300 302 304 305 308 311 313 313 312 313 318 323 326 326 328 328 321 308 303 305 307 309 311 314 316 318 320 319 319 319 320 320 320 320 319 316 316 316 317 317 319 323 327 327 327 329 330 329 330 330 331 332 331 328 324 321 319 318 319
Height
10981 10980 10979 10978 10976 10975 10975 10974 10973 10971 10969 10967 10965 10964 10963 10962 10961 10960 10959 10957 10957 10956 10955 10954 10953 10952 10950 10949 10948 10947 10946 10945 10945 10945 10945 10944 10944 10944 10944 10945 10945 10945 10945 10945 10946 10946 10946 10947 10948 10948 10949 10950 10950 10951 10952 10952 10953 10954 10955 10956 10956 10956 10957 10957 10956 10956 10956 10955 10955 10954 10953 10951 10950 10948 10946 10944 10942 10940 10938 10935 10933 10931 10928 10926 10924
10984 10983 10981 10980 10979 10978 10978 10977 10976 10974 10972 10970 10968 10967 10966 10964 10963 10962 10961 10960 10959 10958 10957 10956 10955 10954 10952 10951 10949 10948 10947 10947 10947 10946 10946 10945 10945 10945 10945 10945 10945 10946 10946 10947 10947 10948 10948 10949 10950 10950 10951 10951 10952 10952 10953 10953 10954 10956 10956 10957 10958 10958 10958 10958 10958 10958 10957 10956 10956 10955 10954 10952 10951 10949 10947 10944 10942 10940 10938 10936 10933 10931 10928 10926 10923
10987 10986 10984 10983 10982 10981 10980 10979 10978 10976 10974 10972 10971 10969 10968 10967 10966 10965 10964 10963 10962 10960 10959 10958 10957 10956 10954 10952 10951 10950 10949 10948 10948 10947 10947 10946 10945 10945 10945 10945 10946 10946 10947 10948 10949 10949 10950 10951 10952 10952 10953 10953 10953 10954 10954 10955 10956 10957 10958 10959 10959 10959 10960 10960 10959 10959 10958 10958 10957 10956 10955 10953 10951 10949 10947 10945 10942 10940 10938 10936 10933 10931 10928 10926 10924
10990 10988 10987 10986 10985 10984 10983 10982 10980 10979 10977 10976 10974 10973 10971 10970 10969 10968 10967 10966 10964 10963 10962 10960 10959 10958 10956 10954 10953 10952 10951 10949 10948 10948 10947 10947 10946 10946 10946 10946 10946 10947 10948 10949 10950 10950 10951 10952 10953 10954 10954 10954 10955 10955 10955 10956 10957 10958 10959 10960 10961 10961 10961 10961 10961 10960 10960 10959 10958 10957 10955 10954 10952 10950 10947 10945 10943 10941 10939 10936 10934 10931 10929 10926 10924
10993 10991 10990 10989 10988 10987 10986 10985 10983 10981 10980 10979 10977 10976 10974 10973 10972 10971 10970 10969 10968 10966 10965 10963 10962 10961 10959 10957 10955 10954 10952 10951 10949 10948 10948 10947 10946 10946 10946 10946 10947 10948 10948 10949 10950 10951 10952 10953 10954 10954 10955 10955 10955 10956 10956 10957 10959 10960 10961 10962 10962 10962 10962 10962 10962 10961 10961 10960 10959 10958 10956 10954 10953 10950 10948 10946 10944 10941 10939 10937 10934 10932 10930 10927 10923
10995 10994 10993 10992 10991 10990 10989 10987 10986 10984 10983 10982 10981 10979 10977 10976 10975 10974 10973 10972 10971 10969 10967 10966 10965 10964 10962 10959 10958 10956 10954 10952 10950 10949 10948 10947 10947 10946 10946 10946 10947 10948 10949 10950 10950 10951 10952 10953 10954 10954 10955 10955 10956 10956 10957 10959 10960 10962 10962 10963 10963 10964 10964 10963 10963 10963 10962 10961 10960 10958 10957 10955 10953 10951 10949 10947 10945 10942 10940 10938 10936 10933 10930 10927 10923
10998 10996 10995 10994 10993 10992 10991 10990 10988 10987 10986 10985 10984 10982 10980 10979 10978 10976 10975 10974 10973 10971 10970 10968 10967 10966 10964 10962 10960 10958 10956 10953 10951 10949 10948 10948 10947 10947 10947 10947 10947 10948 10949 10950 10951 10951 10952 10953 10954 10955 10955 10956 10957 10958 10959 10960 10962 10963 10964 10964 10965 10965 10965 10965 10964 10963 10963 10962 10961 10959 10958 10956 10954 10952 10950 10948 10946 10944 10941 10939 10937 10934 10930 10927 10924
11000 10999 10998 10997 10996 10995 10994 10992 10991 10990 10989 10988 10986 10985 10983 10982 10980 10979 10978 10976 10975 10974 10972 10971 10969 10968 10966 10964 10963 10961 10958 10956 10953 10951 10950 10949 10948 10948 10947 10947 10948 10948 10949 10950 10950 10951 10952 10953 10954 10955 10956 10957 10958 10959 10960 10962 10963 10964 10965 10965 10966 10966 10966 10966 10965 10964 10964 10963 10962 10960 10959 10957 10955 10953 10952 10949 10947 10945 10943 10940 10937 10934 10931 10928 10925
11003 11002 11000 10999 10998 10997 10996 10995 10993 10992 10991 10990 10989 10987 10986 10984 10983 10982 10980 10979 10978 10976 10975 10973 10972 10970 10969 10967 10966 10964 10961 10958 10956 10954 10953 10951 10950 10949 10948 10948 10948 10948 10949 10949 10950 10951 10952 10953 10955 10956 10957 10958 10959 10960 10961 10963 10964 10964 10965 10966 10967 10967 10967 10967 10966 10965 10965 10964 10963 10961 10960 10958 10957 10955 10953 10951 10948 10946 10944 10941 10938 10935 10932 10930 10927
11005 11004 11003 11002 11001 11000 10999 10997 10996 10994 10993 10992 10991 10990 10989 10987 10986 10985 10983 10981 10980 10978 10977 10976 10975 10973 10971 10970 10969 10967 10965 10962 10959 10957 10956 10954 10953 10951 10950 10949 10949 10949 10949 10950 10951 10952 10953 10954 10955 10957 10958 10959 10960 10962 10963 10964 10965 10966 10967 10968 10968 10969 10968 10968 10967 10966 10966 10965 10963 10962 10961 10960 10958 10957 10954 10952 10950 10947 10945 10942 10939 10936 10933 10931 10928
11008 11007 11006 11004 11004 11003 11001 11000 10998 10997 10996 10995 10994 10993 10992 10991 10989 10988 10986 10984 10982 10980 10979 10978 10977 10976 10974 10973 10972 10971 10968 10966 10963 10961 10959 10958 10956 10954 10953 10952 10951 10951 10951 10951 10952 10953 10954 10956 10957 10958 10960 10961 10962 10964 10964 10965 10966 10967 10969 10969 10970 10970 10969 10969 10968 10967 10966 10965 10964 10963 10962 10961 10960 10958 10955 10953 10951 10948 10946 10943 10940 10937 10934 10931 10928
11010 11009 11008 11007 11006 11005 11004 11002 11001 11000 10999 10998 10997 10996 10995 10994 10993 10991 10988 10986 10984 10983 10982 10981 10980 10978 10977 10976 10975 10974 10972 10970 10967 10965 10964 10962 10961 10958 10957 10955 10955 10954 10954 10954 10955 10956 10957 10958 10959 10961 10962 10963 10964 10965 10966 10967 10968 10969 10970 10971 10971 10971 10970 10970 10969 10968 10967 10966 10966 10965 10964 10963 10961 10959 10957 10954 10952 10949 10946 10944 10941 10938 10935 10932 10929
11011 11011 11010 11009 11009 11008 11007 11005 11004 11004 11003 11002 11000 10999 10998 10997 10995 10993 10991 10989 10987 10986 10986 10985 10983 10981 10979 10979 10978 10977 10975 10974 10972 10970 10968 10967 10965 10964 10961 10960 10959 10958 10957 10957 10958 10958 10959 10961 10962 10963 10964 10965 10966 10967 10968 10969 10970 10971 10972 10972 10972 10972 10971 10971 10970 10969 10969 10968 10967 10967 10965 10964 10962 10960 10958 10956 10953 10950 10948 10945 10942 10939 10936 10933 10930
11012 11012 11012 11011 11011 11010 11009 11008 11007 11006 11006 11005 11003 11002 11001 11000 10998 10996 10994 10992 10991 10990 10989 10988 10987 10984 10983 10982 10981 10980 10979 10977 10976 10975 10973 10971 10970 10970 10967 10965 10964 10963 10962 10961 10961 10962 10963 10964 10965 10966 10967 10968 10969 10970 10971 10972 10973 10973 10973 10973 10973 10973 10972 10972 10971 10971 10970 10970 10969 10968 10967 10965 10963 10961 10959 10957 10954 10951 10949 10946 10943 10940 10937 10934 10931
11014 11014 11013 11013 11012 11011 11011 11010 11009 11008 11008 11007 11006 11005 11004 11003 11001 10999 10997 10996 10994 10993 10993 10992 10990 10988 10986 10985 10984 10983 10982 10981 10980 10979 10977 10975 10975 10975 10973 10971 10969 10967 10967 10966 10966 10967 10968 10969 10970 10970 10971 10972 10972 10973 10974 10974 10974 10975 10975 10974 10974 10974 10974 10973 10973 10972 10972 10971 10970 10969 10968 10966 10964 10963 10960 10958 10955 10953 10950 10947 10944 10941 10938 10936 10933
11015 11015 11014 11014 11013 11013 11012 11011 11011 11010 11010 11009 11008 11007 11006 11005 11003 11002 11001 10999 10998 10997 10996 10995 10993 10991 10989 10988 10987 10987 10985 10984 10984 10983 10981 10980 10980 10980 10979 10977 10974 10972 10972 10971 10971 10972 10973 10974 10974 10974 10975 10975 10976 10976 10976 10976 10976 10976 10976 10976 10976 10976 10976 10975 10975 10974 10973 10972 10971 10970 10969 10967 10966 10964 10961 10959 10957 10954 10951 10948 10945 10943 10940 10937 10934
11016 11016 11015 11015 11014 11014 11014 11013 11012 11012 11012 11011 11010 11009 11008 11007 11006 11005 11004 11002 11001 10999 10998 10997 10996 10994 10993 10991 10991 10990 10988 10987 10987 10986 10985 10983 10984 10984 10983 10981 10979 10978 10977 10976 10976 10976 10977 10978 10978 10978 10978 10979 10979 10979 10979 10979 10978 10978 10979 10979 10978 10978 10978 10977 10976 10976 10975 10974 10973 10972 10971 10969 10967 10965 10963 10961 10958 10955 10952 10949 10947 10944 10942 10939 10936
11017 11017 11017 11016 11016 11016 11015 11014 11014 11013 11013 11013 11012 11011 11010 11009 11009 11007 11006 11005 11003 11002 11000 10999 10998 10997 10996 10995 10994 10993 10991 10990 10989 10989 10988 10987 10986 10987 10986 10985 10983 10982 10981 10980 10980 10980 10981 10981 10982 10982 10982 10982 10982 10982 10981 10981 10981 10981 10981 10981 10980 10980 10979 10979 10978 10977 10976 10975 10974 10973 10972 10970 10968 10966 10964 10962 10959 10956 10954 10951 10948 10946 10943 10940 10938
11019 11019 11019 11018 11018 11017 11016 11016 11015 11015 11014 11014 11013 11013 11012 11011 11010 11009 11008 11007 11006 11004 11003 11002 11001 11000 10999 10998 10997 10995 10994 10993 10992 10992 10992 10990 10989 10989 10989 10988 10987 10985 10985 10984 10984 10984 10984 10984 10985 10985 10985 10985 10985 10985 10984 10984 10984 10983 10983 10983 10982 10982 10981 10980 10979 10979 10978 10977 10976 10975 10973 10971 10969 10967 10965 10963 10960 10958 10955 10952 10950 10947 10944 10942 10939
11020 11020 11020 11020 11019 11019 11018 11017 11016 11016 11015 11015 11014 11014 11013 11013 11012 11011 11010 11009 11008 11007 11006 11005 11004 11003 11002 11001 11000 10998 10997 10996 10995 10995 10994 10993 10992 10991 10990 10990 10990 10989 10988 10988 10988 10987 10987 10987 10988 10988 10988 10987 10987 10987 10986 10986 10986 10985 10985 10984 10984 10983 10982 10981 10981 10980 10979 10978 10977 10976 10974 10972 10970 10968 10966 10964 10962 10959 10956 10954 10951 10948 10946 10943 10940
11021 11021 11021 11021 11020 11020 11018 11018 11017 11017 11016 11016 11016 11015 11015 11014 11014 11013 11012 11011 11011 11010 11009 11008 11007 11005 11004 11003 11003 11001 11000 10999 10998 10998 10997 10996 10995 10994 10993 10993 10993 10992 10991 10991 10990 10990 10990 10990 10990 10990 10989 10989 10989 10989 10988 10988 10987 10987 10986 10986 10985 10984 10984 10983 10982 10981 10980 10979 10978 10976 10975 10973 10971 10969 10967 10965 10963 10960 10958 10955 10952 10950 10947 10944 10941
11022 11022 11022 11022 11021 11020 11019 11019 11018 11018 11018 11018 11017 11017 11016 11016 11015 11015 11014 11013 11012 11012 11011 11010 11009 11008 11007 11006 11005 11004 11003 11002 11001 11001 11000 10999 10998 10997 10996 10996 10995 10994 10994 10993 10993 10992 10992 10992 10992 10991 10991 10991 10990 10990 10990 10989 10989 10988 10988 10987 10986 10986 10985 10984 10983 10982 10981 10980 10978 10977 10975 10974 10972 10970 10968 10966 10964 10961 10959 10956 10954 10951 10948 10945 10942
11023 11023 11023 11023 11022 11021 11020 11020 11020 11020 11020 11019 11019 11018 11017 11017 11016 11016 11016 11015 11014 11014 11013 11012 11011 11010 11009 11008 11007 11007 11006 11005 11004 11004 11003 11002 11001 11000 11000 10999 10998 10997 10996 10995 10995 10994 10994 10994 10993 10993 10992 10992 10992 10991 10991 10991 10990 10990 10989 10988 10988 10987 10986 10985 10984 10983 10981 10980 10978 10977 10976 10974 10972 10970 10969 10967 10965 10962 10960 10958 10955 10952 10949 10946 10943
11024 11024 11023 11023 11023 11022 11022 11021 11021 11021 11021 11020 11020 11019 11019 11018 11018 11017 11017 11017 11016 11015 11015 11014 11013 11012 11011 11010 11009 11008 11008 11007 11006 11006 11005 11004 11003 11003 11002 11002 11001 10999 10998 10997 10997 10996 10996 10995 10995 10995 10994 10994 10993 10993 10992 10992 10991 10991 10990 10989 10989 10988 10987 10986 10985 10983 10981 10980 10979 10977 10976 10975 10973 10971 10969 10967 10965 10963 10961 10958 10956 10953 10950 10947 10944
11024 11024 11024 11024 11023 11023 11023 11023 11023 11023 11022 11022 11021 11021 11020 11020 11019 11019 11019 11018 11017 11017 11016 11016 11015 11014 11013 11012 11011 11010 11009 11008 11008 11007 11007 11007 11006 11005 11005 11004 11003 11002 11000 11000 10999 10998 10997 10997 10996 10996 10996 10995 10995 10994 10994 10993 10993 10992 10991 10990 10990 10989 10988 10987 10985 10983 10982 10980 10979 10978 10976 10975 10973 10972 10970 10968 10966 10964 10961 10959 10956 10954 10951 10948 10945
11024 11024 11024 11024 11024 11024 11024 11024 11024 11024 11023 11023 11022 11022 11021 11021 11021 11021 11020 11020 11019 11018 11018 11017 11016 11016 11015 11014 11013 11012 11011 11010 11009 11009 11008 11008 11008 11007 11006 11005 11004 11003 11002 11002 11001 11000 10999 10998 10998 10997 10997 10996 10996 10995 10995 10994 10994 10993 10992 10991 10991 10990 10988 10987 10985 10984 10982 10980 10979 10978 10977 10975 10974 10972 10970 10968 10966 10964 10961 10959 10957 10954 10951 10948 10945
11024 11024 11025 11025 11025 11025 11025 11025 11025 11025 11025 11024 11024 11023 11023 11023 11022 11022 11021 11021 11020 11020 11019 11018 11018 11017 11016 11015 11015 11014 11013 11012 11011 11010 11010 11009 11009 11008 11007 11007 11006 11005 11004 11003 11003 11002 11001 11000 10999 10999 10998 10997 10996 10996 10995 10995 10994 10993 10992 10992 10991 10990 10988 10987 10986 10984 10982 10980 10979 10978 10977 10976 10974 10972 10970 10968 10966 10964 10961 10959 10957 10955 10952 10949 10946
11024 11024 11025 11025 11026 11026 11026 11026 11026 11026 11026 11026 11025 11025 11025 11024 11023 11023 11022 11021 11021 11021 11020 11019 11019 11018 11017 11016 11015 11015 11014 11013 11012 11012 11011 11010 11010 11009 11009 11008 11007 11006 11005 11004 11004 11003 11002 11001 11000 11000 10999 10998 10997 10996 10996 10995 10994 10993 10992 10991 10991 10990 10988 10987 10986 10984 10982 10980 10979 10978 10977 10976 10974 10972 10970 10968 10966 10964 10962 10960 10958 10955 10952 10950 10946
11024 11024 11025 11025 11026 11026 11027 11027 11027 11027 11027 11027 11027 11026 11026 11025 11025 11024 11023 11022 11021 11021 11020 11020 11019 11018 11017 11016 11016 11015 11014 11014 11013 11013 11012 11011 11011 11010 11009 11008 11007 11007 11006 11005 11004 11003 11002 11002 11001 11001 11000 10999 10998 10997 10996 10996 10995 10994 10993 10992 10991 10990 10989 10987 10986 10983 10982 10981 10980 10978 10977 10975 10974 10972 10970 10968 10966 10964 10962 10960 10958 10955 10953 10950 10947
11023 11024 11025 11025 11026 11027 11027 11028 11028 11028 11028 11028 11028 11028 11027 11027 11026 11025 11024 11023 11022 11021 11020 11020 11020 11019 11018 11017 11016 11015 11014 11014 11013 11013 11013 11012 11011 11010 11009 11008 11007 11007 11006 11005 11004 11004 11003 11002 11001 11001 11000 10999 10999 10998 10997 10996 10995 10994 10993 10992 10991 10990 10988 10987 10985 10983 10981 10980 10979 10978 10976 10975 10973 10971 10969 10968 10966 10964 10962 10960 10957 10955 10953 10950 10948
11022 11023 11024 11025 11026 11027 11027 11028 11028 11029 11029 11029 11029 11028 11028 11027 11026 11025 11024 11023 11022 11021 11021 11020 11019 11018 11017 11017 11016 11015 11014 11014 11013 11013 11013 11012 11011 11010 11009 11008 11007 11006 11005 11005 11004 11004 11003 11002 11001 11000 11000 10999 10998 10998 10997 10996 10995 10994 10992 10991 10991 10990 10988 10986 10984 10983 10981 10980 10978 10977 10975 10974 10972 10970 10969 10967 10965 10964 10962 10959 10957 10955 10953 10951 10948
11022 11023 11024 11025 11026 11026 11027 11028 11028 11028 11029 11029 11029 11028 11028 11027 11026 11025 11024 11023 11023 11022 11021 11020 11019 11018 11017 11016 11016 11015 11014 11014 11013 11012 11012 11011 11011 11010 11009 11008 11007 11006 11005 11004 11004 11003 11003 11002 11001 11000 11000 10999 10998 10997 10996 10996 10995 10993 10992 10991 10990 10989 10987 10985 10984 10982 10981 10979 10977 10975 10974 10973 10971 10969 10968 10966 10965 10963 10961 10959 10957 10955 10953 10951 10948
11021 11022 11023 11024 11025 11026 11027 11027 11027 11028 11028 11028 11028 11028 11028 11027 11026 11025 11024 11023 11022 11021 11021 11020 11018 11017 11016 11016 11015 11014 11014 11013 11012 11012 11011 11011 11010 11009 11008 11007 11006 11005 11004 11004 11003 11003 11002 11002 11001 11000 11000 10999 10998 10996 10996 10995 10994 10993 10992 10990 10989 10988 10986 10985 10983 10981 10979 10978 10976 10974 10973 10972 10970 10968 10966 10965 10964 10962 10961 10958 10956 10954 10953 10951 10948
11020 11021 11022 11023 11024 11025 11026 11026 11027 11027 11027 11027 11027 11027 11027 11026 11025 11024 11024 11023 11022 11021 11020 11019 11018 11017 11016 11015 11014 11014 11013 11012 11012 11011 11010 11010 11009 11008 11007 11006 11005 11004 11004 11003 11002 11002 11002 11001 11001 11000 10999 10999 10998 10996 10995 10994 10993 10992 10991 10990 10988 10987 10985 10984 10983 10981 10978 10976 10975 10973 10972 10970 10969 10967 10965 10964 10963 10962 10960 10958 10956 10954 10952 10950 10948
11018 11019 11021 11022 11023 11024 11024 11025 11025 11026 11026 11026 11026 11026 11026 11025 11024 11024 11023 11022 11021 11020 11019 11018 11017 11017 11016 11015 11014 11013 11012 11011 11011 11010 11010 11009 11008 11007 11006 11005 11004 11004 11003 11002 11002 11001 11001 11001 11000 10999 10998 10998 10997 10996 10995 10993 10992 10991 10991 10989 10988 10986 10984 10983 10981 10979 10977 10976 10974 10972 10970 10969 10968 10966 10964 10964 10963 10961 10959 10957 10955 10953 10952 10950 10948
11017 11018 11019 11020 11021 11022 11023 11023 11024 11024 11024 11025 11025 11024 11024 11024 11023 11023 11022 11021 11021 11020 11019 11017 11016 11016 11015 11014 11013 11012 11011 11010 11010 11009 11008 11008 11007 11006 11006 11005 11004 11003 11002 11002 11001 11001 11000 11000 10999 10998 10998 10997 10996 10995 10994 10993 10991 10990 10990 10989 10987 10985 10983 10981 10979 10977 10976 10974 10973 10971 10969 10968 10967 10965 10964 10963 10962 10960 10958 10957 10955 10953 10951 10949 10947
11015 11016 11017 11018 11019 11020 11020 11021 11022 11022 11023 11023 11023 11023 11023 11022 11022 11022 11021 11020 11020 11019 11018 11016 11015 11014 11013 11013 11012 11011 11010 11009 11009 11008 11007 11007 11006 11005 11005 11004 11003 11003 11002 11001 11000 11000 10999 10999 10998 10997 10996 10995 10994 10993 10992 10991 10990 10989 10988 10987 10986 10984 10982 10980 10978 10976 10974 10972 10971 10970 10968 10967 10966 10964 10963 10962 10961 10959 10958 10956 10954 10952 10951 10949 10947
11014 11014 11015 11016 11017 11018 11019 11019 11020 11020 11021 11021 11021 11021 11021 11021 11020 11020 11020 11019 11019 11018 11017 11016 11014 11013 11012 11011 11010 11009 11009 11008 11007 11007 11006 11006 11005 11004 11004 11003 11002 11002 11001 11000 10999 10999 10998 10997 10996 10996 10995 10994 10993 10992 10991 10990 10989 10988 10987 10986 10985 10983 10981 10979 10978 10976 10974 10972 10970 10968 10967 10966 10965 10963 10962 10961 10960 10958 10956 10954 10953 10951 10950 10948 10946
11012 11012 11013 11015 11016 11017 11017 11017 11018 11018 11019 11019 11020 11020 11020 11019 11019 11018 11018 11018 11017 11016 11015 11014 11013 11012 11011 11010 11009 11008 11007 11006 11006 11005 11005 11004 11004 11003 11003 11002 11001 11001 11000 10999 10998 10997 10996 10996 10995 10994 10993 10991 10990 10989 10989 10988 10987 10986 10985 10984 10983 10981 10980 10978 10976 10975 10973 10971 10969 10967 10966 10965 10963 10962 10961 10959 10958 10956 10954 10953 10951 10950 10948 10946 10945
11009 11010 11011 11012 11014 11015 11015 11015 11016 11016 11017 11017 11018 11018 11018 11017 11017 11016 11016 11016 11015 11014 11014 11013 11012 11011 11010 11009 11008 11006 11005 11004 11004 11003 11003 11002 11002 11001 11001 11001 11000 10999 10998 10997 10997 10996 10995 10994 10993 10992 10991 10989 10988 10987 10986 10986 10985 10984 10984 10982 10980 10979 10978 10977 10976 10973 10971 10969 10967 10965 10964 10963 10961 10960 10959 10958 10956 10954 10953 10951 10950 10948 10946 10945 10943
11006 11008 11009 11010 11011 11012 11013 11013 11014 11014 11014 11015 11016 11016 11016 11015 11015 11014 11014 11014 11013 11012 11012 11011 11010 11010 11009 11007 11006 11005 11003 11002 11002 11001 11000 11000 11000 10999 10999 10999 10998 10998 10997 10996 10995 10994 10993 10992 10991 10990 10988 10987 10986 10985 10985 10984 10983 10983 10982 10981 10979 10977 10975 10975 10974 10972 10969 10967 10965 10963 10961 10960 10959 10958 10957 10956 10954 10952 10950 10949 10947 10946 10945 10943 10942
11004 11005 11006 11007 11008 11009 11010 11011 11012 11012 11012 11013 11014 11014 11014 11013 11013 11012 11012 11011 11011 11010 11009 11009 11008 11007 11006 11005 11004 11003 11002 11001 11000 10999 10998 10998 10997 10997 10997 10997 10997 10996 10995 10994 10993 10992 10991 10990 10989 10988 10987 10985 10983 10983 10983 10982 10982 10981 10980 10979 10977 10975 10973 10972 10971 10969 10967 10965 10963 10961 10959 10958 10957 10956 10955 10953 10952 10950 10948 10946 10945 10944 10943 10942 10940
11002 11003 11004 11005 11006 11007 11008 11008 11009 11010 11011 11012 11012 11012 11012 11011 11011 11010 11010 11009 11008 11008 11007 11007 11006 11005 11004 11003 11002 11001 11000 10999 10998 10997 10996 10995 10994 10994 10994 10994 10994 10994 10993 10992 10991 10990 10989 10988 10987 10986 10985 10983 10981 10980 10980 10980 10979 10978 10977 10976 10974 10972 10971 10969 10968 10967 10965 10964 10962 10959 10957 10956 10954 10953 10952 10951 10949 10947 10946 10944 10942 10941 10940 10939 10938
11000 11002 11003 11003 11004 11005 11006 11006 11007 11008 11009 11010 11010 11010 11010 11010 11009 11008 11007 11007 11006 11005 11005 11004 11004 11003 11002 11001 11000 10999 10998 10996 10995 10994 10994 10993 10992 10992 10991 10991 10991 10991 10990 10989 10988 10987 10987 10986 10985 10984 10983 10981 10979 10978 10978 10977 10976 10975 10974 10972 10971 10970 10968 10967 10966 10965 10963 10962 10960 10958 10955 10953 10952 10950 10949 10948 10946 10945 10943 10941 10939 10938 10936 10936 10936
11000 11001 11001 11002 11003 11004 11004 11005 11005 11006 11008 11008 11009 11008 11008 11008 11007 11006 11006 11005 11004 11003 11003 11002 11002 11001 11000 10998 10998 10997 10995 10994 10992 10992 10991 10991 10990 10990 10989 10989 10988 10988 10987 10987 10986 10985 10984 10983 10983 10982 10980 10978 10977 10976 10975 10974 10973 10972 10971 10970 10969 10968 10966 10965 10964 10963 10961 10960 10958 10957 10954 10952 10950 10948 10947 10946 10944 10942 10941 10939 10936 10935 10933 10933 10932
10999 11000 11001 11002 11003 11003 11004 11004 11005 11005 11006 11007 11007 11007 11006 11006 11005 11005 11004 11003 11002 11002 11001 11000 11000 10998 10997 10996 10995 10994 10993 10992 10990 10990 10989 10989 10988 10988 10988 10988 10987 10986 10985 10984 10983 10982 10981 10980 10979 10979 10978 10976 10975 10974 10973 10971 10970 10970 10969 10968 10967 10966 10965 10963 10962 10961 10959 10958 10956 10955 10953 10951 10949 10947 10945 10943 10942 10940 10938 10936 10934 10932 10931 10930 10930
10998 10999 11000 11001 11002 11002 11003 11003 11004 11004 11005 11005 11005 11005 11005 11004 11004 11003 11002 11001 11001 11000 10999 10998 10997 10996 10995 10994 10992 10992 10991 10990 10989 10988 10987 10987 10986 10986 10987 10986 10985 10984 10983 10983 10981 10979 10978 10976 10975 10975 10975 10973 10972 10972 10971 10969 10968 10968 10967 10967 10966 10964 10963 10961 10959 10958 10956 10955 10954 10953 10952 10950 10947 10945 10943 10941 10939 10937 10935 10933 10932 10930 10928 10927 10927
10997 10998 10999 10999 11000 11001 11002 11002 11003 11003 11004 11004 11004 11003 11003 11002 11002 11001 11000 10999 10998 10998 10997 10996 10995 10994 10993 10992 10990 10989 10989 10988 10987 10986 10985 10984 10984 10984 10985 10985 10983 10982 10981 10981 10979 10977 10975 10974 10973 10972 10972 10971 10970 10969 10968 10967 10966 10965 10965 10964 10963 10961 10960 10958 10956 10954 10953 10952 10951 10950 10949 10948 10946 10943 10941 10939 10937 10935 10933 10932 10930 10929 10927 10926 10925
10994 10995 10996 10998 10999 11000 11000 11000 11000 11000 11001 11002 11002 11002 11001 11001 11000 10999 10998 10997 10996 10995 10995 10994 10993 10992 10991 10990 10988 10987 10987 10987 10986 10985 10983 10982 10982 10982 10982 10982 10981 10980 10980 10979 10976 10974 10972 10972 10971 10970 10969 10969 10968 10967 10966 10965 10963 10962 10961 10960 10959 10958 10956 10954 10953 10951 10950 10949 10948 10947 10947 10945 10944 10942 10939 10937 10936 10934 10932 10930 10929 10928 10926 10925 10924
10991 10992 10994 10995 10996 10996 10997 10997 10997 10998 10999 10999 10999 10999 10999 10999 10998 10997 10996 10995 10994 10993 10993 10992 10991 10990 10989 10988 10987 10986 10986 10986 10985 10984 10982 10980 10980 10980 10980 10979 10978 10978 10978 10976 10973 10971 10970 10969 10969 10968 10968 10967 10967 10965 10964 10962 10961 10960 10958 10957 10956 10954 10952 10951 10950 10949 10947 10946 10945 10944 10944 10943 10941 10940 10938 10935 10934 10933 10931 10930 10928 10927 10925 10923 10922
10988 10989 10991 10992 10993 10993 10993 10994 10995 10995 10995 10996 10996 10996 10996 10996 10996 10995 10994 10993 10992 10991 10991 10990 10989 10988 10987 10986 10985 10984 10984 10984 10984 10983 10981 10979 10978 10978 10978 10977 10976 10975 10975 10973 10971 10970 10969 10967 10967 10967 10966 10965 10965 10963 10962 10960 10959 10958 10956 10955 10953 10951 10950 10948 10947 10946 10945 10944 10943 10942 10941 10940 10939 10937 10936 10934 10932 10932 10931 10929 10927 10925 10923 10921 10919